Miscellaneous Local Product
Issued by NWS Hastings, NE

Home | Current Version | Previous Version | Text Only | Print | Product List | Glossary Off
Versions: 1 2 3 4 5 6 7 8 9 10 11 12 13 14 15 16 17 18 19 20 21 22 23 24 25 26 27 28 29 30 31 32 33 34 35 36 37 38 39 40 41 42 43 44 45 46 47 48 49 50

000
AXUS43 KGID 251502
MISGRI

GID CWA HOURLY WEATHER ROUNDUP
NATIONAL WEATHER SERVICE HASTINGS NE
900 AM CST SUN JAN 25 2015

NOTE: "FAIR" INDICATES FEW OR NO CLOUDS BELOW 12,000 FEET WITH NO
SIGNIFICANT WEATHER AND/OR OBSTRUCTIONS TO VISIBILITY.

...SOUTH CENTRAL NEBRASKA...

CITY           SKY/WX    TMP DP  RH WIND       PRES   REMARKS
GRAND ISLAND   CLOUDY    39  31  72 N24G31    29.96R WCI  28
HASTINGS       CLOUDY    39  29  67 NW20      29.95R WCI  29
KEARNEY        CLOUDY    37  27  65 NW17G24   29.98R WCI  28
ORD            CLOUDY    38  30  73 N22G28    29.97R WCI  27
YORK           CLOUDY    36  32  87 N16G24    29.91R WCI  26
AURORA         CLOUDY    37  33  86 N23G29    29.94R WCI  26
LEXINGTON      CLOUDY    37  30  77 NW9       30.02R WCI  30
HOLDREGE       MOSUNNY   37  28  69 NW16G25   29.98R WCI  27
HEBRON         CLOUDY    40  32  74 N22G31    29.90R WCI  29

...NEBRASKA PANHANDLE...

CITY           SKY/WX    TMP DP  RH WIND       PRES   REMARKS
CHADRON        PTCLDY    38  28  67 W16G24    30.08S WCI  29
ALLIANCE       CLEAR     33  27  78 NW20      30.07R WCI  21
SCOTTSBLUFF    CLOUDY    34  28  79 NW8       30.13R WCI  27
SIDNEY         CLEAR     34  27  75 NW13      30.12R WCI  25

...WESTERN AND NORTH CENTRAL NEBRASKA...

CITY           SKY/WX    TMP DP  RH WIND       PRES   REMARKS
VALENTINE      CLEAR     33  27  78 NW10      30.03R WCI  25
AINSWORTH      CLOUDY    35  29  80 NW16G22   30.01R WCI  25
ONEILL         CLOUDY    37  35  92 NW21      29.97R WCI  26
BROKEN BOW     MOCLDY    38  29  70 N24G33    29.99R WCI  27
IMPERIAL       CLEAR     34  24  67 NW12      30.09R WCI  25
NORTH PLATTE   CLEAR     32  25  75 NW13      30.06R WCI  22
MCCOOK         CLEAR     38  25  59 NW16      30.05R WCI  29

...EASTERN NEBRASKA...

CITY           SKY/WX    TMP DP  RH WIND       PRES   REMARKS
NORFOLK        CLOUDY    33  31  92 N20       29.93R WCI  21
SO SIOUX CITY  CLOUDY    36  33  89 N16       29.92R WCI  26
TEKAMAH        CLOUDY    36  33  89 N22G30    29.90R WCI  25
COLUMBUS       CLOUDY    36  27  69 N17G23    29.94R WCI  25
ALBION         CLOUDY    36  32  84 N17G24    29.94R WCI  26
OMAHA EPPLEY   CLOUDY    36  33  89 N26G33    29.85R WCI  24
OFFUTT AFB     CLOUDY    37  32  85 N23G29    29.85R WCI  25
MILLARD        CLOUDY    37  32  84 NW15G24   29.86R WCI  27
LINCOLN        CLOUDY    37  30  75 N25G32    29.89R WCI  25
NEBRASKA CITY  DRIZZLE   35  32  87 N21G31    29.81R WCI  24
BEATRICE       CLOUDY    36  32  85 N22G29    29.87R WCI  24
FALLS CITY     LGT RAIN  36  31  82 NW21G31   29.80R WCI  25

...NORTHERN KANSAS...

CITY           SKY/WX    TMP DP  RH WIND       PRES   REMARKS
GOODLAND       CLEAR     37  27  67 NW16      30.10R WCI  28
HILL CITY      SUNNY     40  26  57 NW20G26   30.04R WCI  30
NORTON         SUNNY     37  25  60 NW16      30.03R WCI  28
PHILLIPSBURG   SUNNY     39  30  70 W14G21    30.01R WCI  31
SMITH CENTER   SUNNY     39  27  60 NW23G31   29.98R WCI  29
BELOIT         CLOUDY    43  28  56 NW21G33   29.95R
HAYS           SUNNY     41  23  48 NW20G31   30.02R
RUSSELL        SUNNY     40  29  64 NW22G32   29.99R WCI  30
CONCORDIA      CLOUDY    42  34  73 N15G24    29.92R
SALINA         CLOUDY    46  31  55 NW28G35   29.92R
TOPEKA         CLOUDY    39  31  72 NW18G32   29.81R WCI  30



USA.gov is the U.S. government's official web portal to all federal, state and local government web resources and services.